Location: Grand Mazuras
(45.9128°N, 1.7636°E)
Time: 18:11:26
(UTC+00:00)

Cosmos 1758 Rocket - Pass Details

Date: 18 April 2021
Orbit: 603 x 635 km, 82.5° (Epoch: 12 May)

Event Time Altitude Azimuth Distance (km) Brightness Sun altitude
Rises 19:21:49 0° 346° (NNW) 2,920 7.6 -7.0°
Reaches altitude 10° 19:24:05 10° 342° (NNW) 2,013 6.8 -7.4°
Maximum altitude 19:28:26 54° 266° (W) 772 4.5 -8.0°
Drops below altitude 10° 19:32:47 10° 189° (S) 2,011 6.0 -8.7°
Sets 19:35:02 0° 185° (S) 2,916 6.8 -9.1°
